This is the latest recevied weather packets stored in our database for station/object OM8AGG-15. If no packets are shown the sender has not sent any weather packets the latest 10 day(s).
| Time | Temp. | Humidity | Pressure | Rain* | Wind** | Luminosity | Snow |
|---|---|---|---|---|---|---|---|
| 1777502323 | 2.78° C | 46% | 1026.8 hPa | - | - | - | - |
| 1777501423 | 2.78° C | 46% | 1026.7 hPa | - | - | - | - |
| 1777500523 | 3.33° C | 44% | 1026.8 hPa | - | - | - | - |
| 1777499622 | 3.33° C | 43% | 1026.6 hPa | - | - | - | - |
| 1777498722 | 3.33° C | 44% | 1026.3 hPa | - | - | - | - |
| 1777497822 | 3.33° C | 44% | 1026.2 hPa | - | - | - | - |
| 1777496922 | 3.89° C | 43% | 1026.1 hPa | - | - | - | - |
| 1777496022 | 3.89° C | 41% | 1026 hPa | - | - | - | - |
| 1777495122 | 4.44° C | 39% | 1025.8 hPa | - | - | - | - |
| 1777494222 | 4.44° C | 37% | 1025.8 hPa | - | - | - | - |
| 1777493322 | 5° C | 35% | 1025.5 hPa | - | - | - | - |
| 1777492422 | 5° C | 34% | 1025.2 hPa | - | - | - | - |
| 1777491521 | 5.56° C | 33% | 1025 hPa | - | - | - | - |
| 1777490621 | 5.56° C | 31% | 1024.9 hPa | - | - | - | - |
| 1777489721 | 6.11° C | 31% | 1024.7 hPa | - | - | - | - |
| 1777488821 | 6.11° C | 29% | 1024.3 hPa | - | - | - | - |
| 1777487921 | 6.11° C | 29% | 1024.1 hPa | - | - | - | - |
| 1777487021 | 6.67° C | 28% | 1023.7 hPa | - | - | - | - |
| 1777486107 | 6.67° C | 28% | 1023.5 hPa | - | - | - | - |
| 1777481663 | 7.78° C | 27% | 1022.9 hPa | - | - | - | - |
| 1777478963 | 8.33° C | 28% | 1022.6 hPa | - | - | - | - |
| 1777478063 | 8.33° C | 28% | 1022.7 hPa | - | - | - | - |
| 1777477163 | 8.89° C | 30% | 1022.6 hPa | - | - | - | - |
| 1777474463 | 8.33° C | 30% | 1022.4 hPa | - | - | - | - |
| 1777473562 | 8.89° C | 30% | 1022.3 hPa | - | - | - | - |
* Rain since midnight (hover to see other rain measurements)
** Current wind speed in m/s (hover to see current wind gust speed)